sat.trackr.live / text

‹ back to catalog

CHEOPS

NORAD 44874 · 2019-092B

PAYLOAD ACTIVE UNKNOWN

§ Identity

Operator
Country
ESA
Launch date
2019-12-18
Launch site
FRGUI
Launch vehicle
Mass (kg)
RCS (m²)

External: N2YO · Heavens-Above · Gunter

§ Orbital elements

Epoch: 2026-09-13T00:44:27.690720Z

Period
98.49 min
Inclination
98.1512°
Eccentricity
0.0010470
Mean motion
14.62013257 rev/d
Perigee alt
679.3 km
Apogee alt
694.1 km
Semi-major
7,064.8 km
B*
4.8286e-5
RAAN
83.0858°
Arg perigee
177.4939°
Mean anomaly
182.6317°
Rev number
35,873

§ Raw data

CHEOPS1 44874U 19092B   26256.03087605  .00000195  00000+0  48286-4 0  99942 44874  98.1512  83.0858 0010470 177.4939 182.6317 14.62013257358734

JSON: /api/v1/satellites/44874 · /tle

For live sub-satellite position, see the globe view (requires WebGL).

§ Visibility from observer

Set your observer location to see the next 7 days of passes ≥ 10°. The values pass through the URL so the page stays shareable.

No JS? Fill the form by hand. The geolocation button needs JavaScript.

§ Radio — SatNOGS DB

ModeDescriptionDownlinkUplink
FM S-band telemetry 2.209 GHz

1 transmitter · refreshed weekly from db.satnogs.org